Seattle Boeing, WA

8:36 PM PST on January 19, 2018 (GMT -0800)
Boeing Field-King County International

Weather History for KBFI - April, 2014

Change the Weather History Date:

Thursday, April 24, 2014

  Actual Average Record
Temperature  
Mean Temperature 54 °F -  
Max Temperature 60 °F 57 °F 76 °F (1977)
Min Temperature 48 °F 42 °F 30 °F (1950)
Degree Days  
Heating Degree Days 12    
Growing Degree Days 4 (Base 50)    
Moisture  
Dew Point 44 °F    
Average Humidity 71    
Maximum Humidity 86    
Minimum Humidity 53    
Precipitation  
Precipitation 0.30 in - - ()
Sea Level Pressure  
Sea Level Pressure 29.77 in    
Wind  
Wind Speed 11 mph (South)    
Max Wind Speed 15 mph    
Max Gust Speed 24 mph    
Visibility 10 miles    
Events Rain    
Averages and records for this station are not official NWS values.
T = Trace of Precipitation, MM = Missing Value Source: NWS Daily Summary

Daily Weather History Graph

Daily Weather History Graph

Search for Another Location

Airport or City:

Trip Planner

Search our weather history database for the weather conditions in past years. The results will help you decide how hot, cold, wet, or windy it might be!

Date:

Astronomy

Apr. 24, 2014 Rise Set
Actual Time 6:03 AM PDT 8:11 PM PDT
Civil Twilight 5:30 AM PDT 8:45 PM PDT
Nautical Twilight 4:49 AM PDT 9:26 PM PDT
Astronomical Twilight 4:03 AM PDT 10:13 PM PDT
Moon 3:39 AM PDT (4/24) 3:13 PM PDT (4/24)
Length of Visible Light 15h 14m
Length of Day
14h 07m
Waning Crescent, 23% of the Moon is Illuminated
Apr 24
Waning Crescent
Apr 28
New
May 6
First Quarter
May 14
Full
May 21
Last Quarter

Hourly Weather History & Observations

Time (PDT) Temp. Dew Point Humidity Pressure Visibility Wind Dir Wind Speed Gust Speed Precip Events Conditions
12:53 AM 52.0 °F 46.9 °F 83% 29.62 in 10.0 mi SE 13.8 mph - 0.02 in Rain Light Rain
1:53 AM 52.0 °F 46.9 °F 83% 29.61 in 10.0 mi SE 11.5 mph - 0.02 in Rain Light Rain
2:53 AM 52.0 °F 48.0 °F 86% 29.61 in 10.0 mi SE 10.4 mph - 0.03 in Rain Light Rain
3:53 AM 52.0 °F 48.0 °F 86% 29.60 in 10.0 mi SE 10.4 mph - 0.01 in   Overcast
4:53 AM 54.0 °F 48.0 °F 80% 29.60 in 10.0 mi SSE 13.8 mph - 0.03 in Rain Light Rain
5:51 AM 55.4 °F 48.2 °F 77% 29.62 in 3.0 mi South 6.9 mph 17.3 mph 0.04 in Rain Rain
5:53 AM 54.0 °F 48.9 °F 83% 29.62 in 3.0 mi South 5.8 mph 17.3 mph 0.06 in Rain Rain
6:53 AM 53.1 °F 46.0 °F 77% 29.66 in 10.0 mi SW 9.2 mph 23.0 mph 0.07 in   Mostly Cloudy
7:00 AM 53.6 °F 44.6 °F 72% 29.66 in 10.0 mi South 11.5 mph 20.7 mph N/A   Mostly Cloudy
7:53 AM 52.0 °F 44.1 °F 74% 29.70 in 10.0 mi South 12.7 mph 20.7 mph N/A   Mostly Cloudy
8:53 AM 54.0 °F 45.0 °F 72% 29.73 in 10.0 mi South 13.8 mph 21.9 mph 0.01 in   Mostly Cloudy
9:53 AM 55.9 °F 44.1 °F 64% 29.75 in 10.0 mi South 11.5 mph 23.0 mph N/A   Mostly Cloudy
10:53 AM 57.0 °F 43.0 °F 59% 29.77 in 10.0 mi South 11.5 mph 23.0 mph N/A   Mostly Cloudy
11:53 AM 59.0 °F 44.1 °F 58% 29.79 in 10.0 mi SW 15.0 mph 21.9 mph 0.00 in   Overcast
12:53 PM 53.1 °F 44.1 °F 71% 29.82 in 10.0 mi SSW 9.2 mph 16.1 mph 0.02 in Rain Light Rain
1:53 PM 53.1 °F 43.0 °F 69% 29.85 in 10.0 mi SW 10.4 mph 23.0 mph 0.02 in Rain Light Rain
2:53 PM 57.0 °F 46.0 °F 67% 29.85 in 10.0 mi SW 9.2 mph 18.4 mph 0.00 in   Overcast
3:00 PM 57.2 °F 44.6 °F 63% 29.85 in 10.0 mi SW 10.4 mph 21.9 mph N/A   Mostly Cloudy
3:53 PM 55.9 °F 43.0 °F 62% 29.86 in 10.0 mi SW 12.7 mph 17.3 mph 0.01 in   Mostly Cloudy
4:53 PM 57.0 °F 41.0 °F 55% 29.86 in 10.0 mi SSW 10.4 mph 19.6 mph N/A   Mostly Cloudy
5:53 PM 57.0 °F 42.1 °F 57% 29.87 in 10.0 mi West 9.2 mph 18.4 mph N/A   Mostly Cloudy
6:53 PM 55.0 °F 37.9 °F 53% 29.88 in 10.0 mi WSW 11.5 mph 24.2 mph N/A   Mostly Cloudy
7:53 PM 52.0 °F 39.9 °F 63% 29.88 in 10.0 mi SW 5.8 mph - N/A   Mostly Cloudy
8:53 PM 50.0 °F 41.0 °F 71% 29.89 in 10.0 mi SSE 6.9 mph - N/A   Scattered Clouds
9:53 PM 48.0 °F 39.9 °F 74% 29.91 in 10.0 mi SSE 4.6 mph - N/A   Partly Cloudy
10:53 PM 48.9 °F 42.1 °F 77% 29.91 in 10.0 mi South 5.8 mph - N/A   Mostly Cloudy
11:53 PM 48.9 °F 41.0 °F 74% 29.91 in 10.0 mi SSE 9.2 mph - N/A   Partly Cloudy